Location: Huberhof
(49.2050°N, 7.4980°E)
Time: 05:30:52
(UTC+00:00)

Cosmos 1408 - Pass Details

Date: 29 October 2020
Orbit: 470 x 492 km, 82.6° (Epoch: 25 November)

Event Time Altitude Azimuth Distance (km) Brightness Sun altitude
Rises 18:12:22 0° 346° (NNW) 2,558 6.4 -19.9°
Reaches altitude 10° 18:14:30 10° 341° (NNW) 1,676 5.5 -20.3°
Maximum altitude 18:18:04 52° 265° (W) 613 3.4 -20.9°
Drops below altitude 10° 18:21:38 10° 188° (S) 1,674 5.3 -21.5°
Sets 18:23:46 0° 184° (S) 2,553 6.2 -21.8°
